Tracking 30986 objects as of 9-Jul-2025
HD Live streaming from Space Station
objects crossing your sky now

NSS 703 (INTELSAT 703)

Track NSS 703 (INTELSAT 703) now!
NSS 703 (INTELSAT 703) is classified as:


NORAD ID: 23305
Int'l Code: 1994-064A
Perigee: 36,048.8 km
Apogee: 36,084.4 km
Inclination: 11.1 °
Period: 1,450.1 minutes
Semi major axis: 42437 km
RCS: 0.003 m2 (small)
Launch date: October 6, 1994
Source: SOCIETE EUROPEENNE DES SATELLITES (SES)
Launch site: AIR FORCE EASTERN TEST RANGE (AFETR)

Africa, Japan, India, China, Australia; 26 C-band, 10 Ku-band; shared capacity with Intelset.
Your satellite tracking list
Your tracking list is empty




NASA's NSSDC Master Catalog

Two Line Element Set (TLE):
1 23305U 94064A   25189.38014065 -.00000255  00000-0  00000-0 0  9991
2 23305  11.1022  39.5496 0004201 254.0269  88.8077  0.99306324112315
Source of the keplerian elements: AFSPC